GW5036 Weather Reports


time (UTC)temp
C
wind
direction
speed
KPH
gust
KPH
rain 1hr
cm
rain 24hr
cm
rain mn
cm
humidity
%
barometer
mb
20260506014939 11 309 3.2 9.7 0.00 0.00 0.00 57 999.0
20260506014439 11 314 3.2 4.8 0.00 0.00 0.00 55 998.8
20260506013939 11 310 3.2 4.8 0.00 0.00 0.00 55 998.7
20260506013708 11 309 3.2 4.8 0.00 0.00 0.00 53 998.7
20260506012939 11 296 3.2 4.8 0.00 0.00 0.00 53 998.6
20260506012438 11 317 4.8 6.4 0.00 0.00 0.00 54 998.5
20260506011940 11 305 4.8 6.4 0.00 0.00 0.00 50 998.5
20260506011439 11 297 4.8 8.0 0.00 0.00 0.00 52 998.4
20260506010435 11 299 4.8 6.4 0.00 0.00 0.00 51 998.2
20260506005934 11 286 4.8 6.4 0.00 0.00 0.00 47 998.0
20260506005157 12 276 4.8 6.4 0.00 0.00 0.00 47 998.0
20260506004432 12 288 4.8 6.4 0.00 0.00 0.00 47 998.0
20260506003931 12 287 4.8 6.4 0.00 0.00 0.00 48 998.0
20260506003650 12 287 4.8 6.4 0.00 0.00 0.00 48 998.0
20260506003149 12 282 4.8 6.4 0.00 0.00 0.00 46 997.9
20260506002426 12 290 4.8 6.4 0.00 0.00 0.00 47 997.9
20260506001919 12 288 4.8 9.7 0.00 0.00 0.00 46 997.9
20260506001420 12 297 6.4 12.9 0.00 0.00 0.00 45 997.8
20260506000918 12 299 8.0 12.9 0.00 0.00 0.00 43 997.9
20260506000417 12 301 8.0 14.5 0.00 0.00 0.00 44 997.9
20260505235915 12 297 9.7 14.5 0.00 0.00 0.00 43 997.8
20260505235413 12 293 11.3 19.3 0.00 0.00 0.00 42 997.8
20260505234912 12 329 11.3 19.3 0.00 0.00 0.00 42 997.8
20260505234412 12 314 12.9 17.7 0.00 0.00 0.00 42 997.9
20260505233913 12 300 12.9 20.9 0.00 0.00 0.00 42 997.9
20260505233636 12 298 14.5 20.9 0.00 0.00 0.00 42 998.0
20260505232910 12 302 14.5 20.9 0.00 0.00 0.00 43 997.9
20260505232411 12 305 14.5 19.3 0.00 0.00 0.00 45 998.0
20260505231632 12 308 16.1 22.5 0.00 0.00 0.00 46 998.0
20260505230910 12 307 16.1 24.1 0.00 0.00 0.00 46 998.0
20260505230633 12 313 17.7 25.7 0.00 0.00 0.00 49 998.0
20260505225911 12 308 19.3 25.7 0.00 0.00 0.00 46 998.0
20260505225411 12 311 17.7 25.7 0.00 0.00 0.00 41 998.2
20260505225125 13 290 16.1 25.7 0.00 0.00 0.00 47 998.1
20260505224355 12 304 14.5 24.1 0.00 0.00 0.00 44 998.1
20260505223850 12 309 14.5 24.1 0.00 0.00 0.00 45 998.2
20260505223343 12 312 16.1 22.5 0.00 0.00 0.00 42 998.1
20260505222839 13 295 19.3 25.7 0.00 0.00 0.00 41 998.1
20260505222555 13 290 17.7 27.4 0.00 0.00 0.00 40 998.0
20260505221826 13 319 16.1 27.4 0.00 0.00 0.00 42 998.0
20260505221548 13 298 14.5 24.1 0.00 0.00 0.00 44 998.0
20260505220814 12 300 16.1 24.1 0.00 0.00 0.00 41 998.0
20260505220535 12 280 17.7 27.4 0.00 0.00 0.00 42 998.1
20260505215802 12 305 16.1 27.4 0.00 0.00 0.00 40 998.0
20260505215255 12 300 12.9 25.7 0.00 0.00 0.00 42 998.2
20260505214750 12 296 14.5 22.5 0.00 0.00 0.00 45 998.1
20260505214245 12 309 17.7 25.7 0.00 0.00 0.00 42 998.0
20260505213738 12 300 16.1 25.7 0.00 0.00 0.00 40 998.0
20260505213231 12 311 16.1 25.7 0.00 0.00 0.00 40 998.0
20260505212726 12 281 17.7 27.4 0.00 0.00 0.00 46 998.2
20260505212441 13 293 16.1 27.4 0.00 0.00 0.00 43 998.2
20260505211714 12 326 14.5 27.4 0.00 0.00 0.00 45 998.0
20260505211209 12 300 16.1 27.4 0.00 0.00 0.00 44 998.0
20260505210702 12 326 14.5 27.4 0.00 0.00 0.00 46 998.0
20260505210156 12 295 17.7 30.6 0.00 0.00 0.00 45 998.1
20260505205650 12 303 17.7 30.6 0.00 0.00 0.00 40 998.2
20260505205144 12 301 16.1 25.7 0.00 0.00 0.00 42 998.1
20260505204638 12 312 17.7 29.0 0.00 0.00 0.00 41 998.2
20260505204133 12 306 19.3 30.6 0.00 0.00 0.00 42 998.0
20260505203626 12 302 17.7 30.6 0.00 0.00 0.00 42 998.2
20260505203120 12 311 17.7 30.6 0.00 0.00 0.00 41 998.3
20260505202614 12 307 20.9 32.2 0.00 0.00 0.00 43 998.4
20260505202111 12 294 20.9 33.8 0.00 0.00 0.00 38 998.6
20260505201602 12 300 20.9 33.8 0.00 0.00 0.00 38 998.5
20260505201056 12 293 20.9 29.0 0.00 0.00 0.00 42 998.4
20260505200550 12 297 20.9 32.2 0.00 0.00 0.00 37 998.3
20260505200044 12 308 20.9 32.2 0.00 0.00 0.00 41 998.5
20260505195538 12 299 20.9 30.6 0.00 0.00 0.00 37 998.4
20260505195032 12 291 20.9 32.2 0.00 0.00 0.00 38 998.5
20260505194020 12 300 17.7 35.4 0.00 0.00 0.00 43 998.7
20260505193514 12 307 17.7 35.4 0.00 0.00 0.00 43 998.5
20260505193009 12 311 20.9 33.8 0.00 0.00 0.00 39 998.7
20260505192502 12 290 19.3 30.6 0.00 0.00 0.00 43 998.7
20260505192218 12 291 19.3 30.6 0.00 0.00 0.00 39 998.8
20260505191502 12 302 20.9 33.8 0.00 0.00 0.00 39 998.9
20260505191005 12 290 17.7 33.8 0.00 0.00 0.00 37 999.0
20260505190503 12 300 16.1 25.7 0.00 0.00 0.00 38 998.9
20260505190002 12 301 19.3 25.7 0.00 0.00 0.00 36 998.9
20260505185723 12 299 20.9 29.0 0.00 0.00 0.00 38 998.8
20260505185002 12 300 19.3 29.0 0.00 0.00 0.00 37 998.8
20260505184502 12 307 17.7 27.4 0.00 0.00 0.00 39 998.9
20260505184002 12 309 19.3 29.0 0.00 0.00 0.00 40 998.7
20260505183219 11 263 22.5 32.2 0.00 0.00 0.00 39 998.8
20260505182501 11 293 20.9 32.2 0.00 0.00 0.00 40 998.7
20260505182001 12 284 19.3 27.4 0.00 0.00 0.00 39 998.7
20260505181503 12 283 17.7 29.0 0.00 0.00 0.00 39 998.8
20260505181001 12 304 17.7 29.0 0.00 0.00 0.00 39 998.8
20260505180458 11 300 19.3 32.2 0.00 0.00 0.00 42 998.6
20260505180219 11 304 22.5 32.2 0.00 0.00 0.00 41 998.5
20260505175723 11 291 22.5 37.0 0.00 0.00 0.00 39 998.3
20260505174958 11 304 19.3 37.0 0.00 0.00 0.00 39 998.4
20260505174458 11 299 19.3 32.2 0.00 0.00 0.00 42 998.3
20260505173959 11 319 17.7 32.2 0.00 0.00 0.00 38 998.2
20260505173457 11 305 17.7 29.0 0.00 0.00 0.00 39 998.2
20260505172959 11 286 20.9 30.6 0.00 0.00 0.00 40 998.3
20260505172721 11 309 19.3 32.2 0.00 0.00 0.00 42 998.3
20260505171957 11 297 19.3 32.2 0.00 0.00 0.00 46 998.2
20260505171458 11 305 19.3 29.0 0.00 0.00 0.00 44 998.3
20260505170958 11 303 17.7 33.8 0.00 0.00 0.00 42 998.5
20260505170714 11 288 16.1 33.8 0.00 0.00 0.00 39 998.5
20260505170217 11 314 17.7 33.8 0.00 0.00 0.00 39 998.5
20260505165454 11 291 19.3 33.8 0.00 0.00 0.00 42 998.6
20260505164453 11 295 16.1 25.7 0.00 0.00 0.00 41 998.3
20260505163953 11 302 17.7 32.2 0.00 0.00 0.00 44 998.2
20260505163455 11 334 17.7 32.2 0.00 0.00 0.00 45 998.0
20260505162955 11 268 17.7 30.6 0.00 0.00 0.00 46 997.9
20260505162453 11 307 20.9 30.6 0.00 0.00 0.00 48 998.1
20260505161950 11 274 19.3 29.0 0.00 0.00 0.00 43 998.2
20260505161450 11 297 20.9 33.8 0.00 0.00 0.00 42 998.2
20260505160950 11 299 19.3 33.8 0.00 0.00 0.00 43 998.3
20260505160449 11 304 16.1 33.8 0.00 0.00 0.00 46 998.2
20260505160214 10 302 14.5 24.1 0.00 0.00 0.00 49 998.3
20260505152946 10 305 14.5 25.7 0.00 0.00 0.00 44 998.1
20260505152446 10 284 16.1 25.7 0.00 0.00 0.00 45 998.2
20260505151944 10 316 12.9 22.5 0.00 0.00 0.00 50 998.2
20260505151443 10 297 14.5 22.5 0.00 0.00 0.00 48 998.1
20260505150944 10 289 16.1 24.1 0.00 0.00 0.00 48 998.3
20260505150444 10 297 16.1 24.1 0.00 0.00 0.00 48 998.4
20260505140413 9 302 11.3 17.7 0.00 0.00 0.00 53 998.5
20260505130127 8 303 8.0 12.9 0.00 0.00 0.00 55 998.5
20260505124844 8 304 6.4 8.0 0.00 0.00 0.00 57 998.1
20260505124339 8 300 6.4 8.0 0.00 0.00 0.00 57 998.2
20260505123834 8 300 4.8 8.0 0.00 0.00 0.00 57 998.3
20260505123326 8 307 4.8 8.0 0.00 0.00 0.00 56 998.2
20260505122820 8 316 6.4 11.3 0.00 0.00 0.00 57 998.4
20260505122315 8 303 8.0 11.3 0.00 0.00 0.00 59 998.4
20260505121815 8 301 8.0 11.3 0.00 0.00 0.00 57 998.4
20260505121315 8 286 8.0 11.3 0.00 0.00 0.00 58 998.6
20260505121032 8 292 8.0 12.9 0.00 0.00 0.00 60 998.6
20260505120315 8 300 8.0 12.9 0.00 0.00 0.00 57 998.2
20260505115816 8 297 9.7 14.5 0.00 0.00 0.00 58 998.4
20260505115315 8 295 9.7 14.5 0.00 0.00 0.00 59 998.2
20260505114815 8 297 9.7 12.9 0.00 0.00 0.00 61 998.4
20260505114041 8 302 11.3 17.7 0.00 0.00 0.00 61 997.7
20260505113314 8 302 9.7 17.7 0.00 0.00 0.00 61 997.4
20260505112815 8 302 8.0 14.5 0.00 0.00 0.00 63 997.1
20260505112537 8 275 4.8 11.3 0.00 0.00 0.00 62 997.8
20260505111814 8 305 1.6 8.0 0.00 0.00 0.00 61 997.1
20260505111541 8 328 1.6 4.8 0.00 0.00 0.00 60 995.9
20260505110814 8 31 1.6 3.2 0.00 0.00 0.00 61 996.4
20260505101728 9 53 3.2 11.3 0.00 0.00 0.00 60 996.5
20260505101222 9 330 1.6 9.7 0.00 0.00 0.00 59 996.3
20260505100717 9 333 1.6 11.3 0.00 0.00 0.00 60 996.4
20260505100210 9 58 1.6 11.3 0.00 0.00 0.00 60 996.2
20260505095707 9 334 1.6 6.4 0.00 0.00 0.00 58 995.9
20260505095207 9 337 1.6 8.0 0.00 0.00 0.00 56 995.9
20260505094707 9 347 1.6 8.0 0.00 0.00 0.00 57 995.9
20260505094205 9 82 1.6 12.9 0.00 0.00 0.00 57 995.8
20260505093204 9 250 1.6 9.7 0.00 0.00 0.00 57 995.9
20260505092924 9 342 1.6 11.3 0.00 0.00 0.00 57 995.9
20260505092203 10 96 3.2 12.9 0.00 0.00 0.00 57 996.0
20260505091703 10 300 4.8 14.5 0.00 0.00 0.00 56 996.0
20260505091203 10 337 4.8 14.5 0.00 0.00 0.00 56 996.0
20260505090929 10 23 4.8 16.1 0.00 0.00 0.00 57 996.1
20260505090203 10 6 3.2 16.1 0.00 0.00 0.00 58 995.6
20260505085706 10 19 1.6 11.3 0.00 0.00 0.00 60 995.6
20260505084704 10 84 4.8 11.3 0.00 0.00 0.00 60 995.5
20260505084205 10 56 4.8 14.5 0.00 0.00 0.00 59 995.4
20260505083658 10 308 3.2 14.5 0.00 0.00 0.00 61 995.4
20260505083152 10 42 1.6 9.7 0.00 0.00 0.00 58 995.1
20260505082646 10 305 3.2 11.3 0.00 0.00 0.00 60 994.8
20260505082146 11 302 4.8 12.9 0.00 0.00 0.00 58 994.8
20260505081907 11 68 4.8 14.5 0.00 0.00 0.00 58 994.7
20260505081145 11 335 6.4 14.5 0.00 0.00 0.00 58 994.5
20260505080645 11 309 8.0 19.3 0.00 0.00 0.00 60 994.1
20260505080144 11 311 6.4 19.3 0.00 0.00 0.00 59 994.2
20260505075645 11 331 4.8 12.9 0.00 0.00 0.00 57 994.0
20260505075145 11 300 3.2 12.9 0.00 0.00 0.00 57 993.8
20260505074645 11 13 4.8 11.3 0.00 0.00 0.00 55 993.7
20260505074143 11 20 4.8 12.9 0.00 0.00 0.00 55 993.7
20260505073644 11 11 4.8 16.1 0.00 0.00 0.00 55 993.6
20260505073409 11 25 3.2 16.1 0.00 0.00 0.00 55 993.4
20260505072637 12 66 3.2 16.1 0.00 0.00 0.00 56 993.2
20260505072137 12 16 4.8 20.9 0.00 0.00 0.00 57 993.3
20260505071857 12 33 6.4 20.9 0.00 0.00 0.00 59 993.3
20260505071138 12 309 4.8 14.5 0.00 0.00 0.00 57 993.4
20260505070137 12 45 4.8 11.3 0.00 0.00 0.00 59 993.1
20260505065636 12 335 6.4 11.3 0.00 0.00 0.00 59 993.1
20260505065400 12 309 8.0 11.3 0.00 0.00 0.00 54 993.1
20260505064637 13 306 8.0 11.3 0.00 0.00 0.00 53 993.0
20260505064355 13 306 8.0 11.3 0.00 0.00 0.00 52 992.8
20260505063637 13 309 8.0 11.3 0.00 0.00 0.00 54 992.9
20260505063358 13 307 8.0 11.3 0.00 0.00 0.00 53 992.7
20260505062636 13 297 8.0 11.3 0.00 0.00 0.00 49 992.8
20260505062136 13 301 9.7 12.9 0.00 0.00 0.00 52 992.7
20260505061637 14 306 11.3 16.1 0.00 0.00 0.00 51 992.8
20260505061137 14 311 9.7 16.1 0.00 0.00 0.00 48 992.7
20260505060636 14 308 9.7 16.1 0.00 0.00 0.00 52 992.7
20260505060137 14 306 9.7 12.9 0.00 0.00 0.00 52 992.4
20260505055637 14 310 9.7 12.9 0.00 0.00 0.00 53 992.4
20260505055356 14 322 11.3 16.1 0.00 0.00 0.00 52 992.3
20260505054637 15 307 12.9 16.1 0.00 0.00 0.00 49 992.4
20260505054137 15 314 14.5 19.3 0.00 0.00 0.00 49 992.4
20260505053636 15 317 16.1 19.3 0.00 0.00 0.00 48 992.3
20260505053138 15 329 16.1 19.3 0.00 0.00 0.00 46 992.5
20260505052631 15 309 14.5 20.9 0.00 0.00 0.00 46 992.4
20260505052131 15 305 12.9 19.3 0.00 0.00 0.00 47 992.3
20260505051631 15 301 11.3 17.7 0.00 0.00 0.00 49 992.2
20260505051129 15 297 11.3 16.1 0.00 0.00 0.00 47 992.1
20260505050627 15 297 12.9 16.1 0.00 0.00 0.00 48 991.9
20260505050125 15 300 12.9 17.7 0.00 0.00 0.00 46 991.8
20260505041606 16 298 14.5 17.7 0.00 0.00 0.00 44 991.5
20260505041107 16 282 12.9 20.9 0.00 0.00 0.00 44 991.4
20260505040607 16 308 12.9 20.9 0.00 0.00 0.00 45 991.3
20260505040107 16 296 12.9 19.3 0.00 0.00 0.00 45 991.3
20260505035607 16 296 11.3 19.3 0.00 0.00 0.00 47 991.3
20260505034825 17 313 16.1 22.5 0.00 0.00 0.00 47 991.0
20260505034107 17 304 17.7 25.7 0.00 0.00 0.00 48 990.9
20260505033607 17 308 17.7 25.7 0.00 0.00 0.00 46 990.9
20260505033107 17 304 16.1 24.1 0.00 0.00 0.00 45 990.9
20260505032600 17 296 12.9 17.7 0.00 0.00 0.00 45 990.8
20260505032059 18 293 11.3 14.5 0.00 0.00 0.00 47 990.6
20260505031559 18 300 11.3 17.7 0.00 0.00 0.00 46 990.5
20260505031318 18 302 12.9 20.9 0.00 0.00 0.00 46 990.4
20260505030559 18 297 14.5 24.1 0.00 0.00 0.00 45 990.7
20260505025557 18 307 19.3 29.0 0.00 0.00 0.00 45 990.8
20260505025058 19 295 22.5 33.8 0.00 0.00 0.00 44 990.7
20260505024557 19 304 22.5 33.8 0.00 0.00 0.00 45 990.5
20260505024056 20 313 19.3 29.0 0.00 0.00 0.00 45 990.1
20260505023558 20 300 17.7 29.0 0.00 0.00 0.00 42 989.9
20260505023322 20 315 19.3 29.0 0.00 0.00 0.00 47 990.0
20260505022551 20 310 17.7 29.0 0.00 0.00 0.00 43 989.5
20260505022051 20 311 17.7 29.0 0.00 0.00 0.00 44 989.4
20260505021550 21 307 19.3 29.0 0.00 0.00 0.00 41 989.6
20260505021050 21 310 22.5 33.8 0.00 0.00 0.00 45 989.5
20260505020550 21 305 20.9 33.8 0.00 0.00 0.00 43 989.6
20260505020051 21 294 16.1 30.6 0.00 0.00 0.00 47 989.3
20260505015552 21 294 16.1 25.7 0.00 0.00 0.00 53 989.0